Retour au catalogue

GLOBALSTAR M079

ActifCommunicationsLEO
NORAD 37188·PAYLOAD·🇺🇸 United States

Lancé Oct 19, 2010 depuis Baikonur Cosmodrome

Loading…

Prochains Passages (prochaines 24 heures)

TLE

FraisSource: Space-Track

Époque: Sep 14, 2026, 13:25 UTC

1 37188U 10054A   26257.55938463 -.00000089  00000-0  83772-4 0  9991
2 37188  52.0030 196.6076 0000371  93.6960  78.0152 12.62267396733839

Suivez GLOBALSTAR M079 en temps réel avec AllMySat

Download on the App Store